Cas;Teplota [C];Tlak [hPa];Svetlo [lux];Rychlost vetru [km/h];Smer vetru [stupne]
2019-10-19 00:00:01;10,39;1010,48;7;0;0
2019-10-19 00:00:31;10,22;1010,5;7;0;0
2019-10-19 00:01:01;10,23;1010,49;6;0;0
2019-10-19 00:01:31;10,21;1010,49;6;0;0
2019-10-19 00:02:01;10,25;1010,54;6;0;0
2019-10-19 00:02:31;10,36;1010,56;6;0;0
2019-10-19 00:03:01;10,09;1010,53;6;0;0
2019-10-19 00:03:32;10,12;1010,52;6;0;0
2019-10-19 00:04:01;10,24;1010,54;6;0;0
2019-10-19 00:04:31;10,3;1010,56;7;0;0
2019-10-19 00:05:01;10,38;1010,55;7;0;0
2019-10-19 00:05:31;10,25;1010,54;7;0;0
2019-10-19 00:06:01;10,23;1010,47;6;0;0
2019-10-19 00:06:31;10,18;1010,47;6;0;0
2019-10-19 00:07:01;10,39;1010,45;6;0;0
2019-10-19 00:07:31;10,33;1010,46;6;0;0
2019-10-19 00:08:01;10,37;1010,48;6;0;0
2019-10-19 00:08:31;10,31;1010,49;7;0;0
2019-10-19 00:09:01;10,31;1010,51;7;0;0
2019-10-19 00:09:31;10,37;1010,53;6;0;0
2019-10-19 00:10:01;10,21;1010,51;7;0;0
2019-10-19 00:10:31;10,26;1010,53;6;0;0
2019-10-19 00:11:01;10,15;1010,54;7;0;0
2019-10-19 00:11:31;10,18;1010,44;7;0;0
2019-10-19 00:12:01;10,14;1010,45;6;0;0
2019-10-19 00:12:31;10,14;1010,47;6;0;0
2019-10-19 00:13:01;10,29;1010,52;6;0;0
2019-10-19 00:13:31;10,1;1010,52;6;0;0
2019-10-19 00:14:01;10,19;1010,53;6;0;0
2019-10-19 00:14:32;10,2;1010,53;6;0;0
2019-10-19 00:15:01;10,12;1010,53;7;0;0
2019-10-19 00:15:31;9,99;1010,51;7;0;0
2019-10-19 00:16:02;9,92;1010,46;7;0;0
2019-10-19 00:16:31;10,08;1010,48;6;0;0
2019-10-19 00:17:01;10,14;1010,5;6;0;0
2019-10-19 00:17:31;10,08;1010,58;7;0;0
2019-10-19 00:18:01;9,99;1010,6;7;0;0
2019-10-19 00:18:31;10,02;1010,59;6;0;0
2019-10-19 00:19:01;10,2;1010,55;6;0;0
2019-10-19 00:19:31;10,15;1010,55;7;0;0
2019-10-19 00:20:01;9,89;1010,61;7;0;0
2019-10-19 00:20:31;9,94;1010,6;7;0;0
2019-10-19 00:21:01;10,09;1010,6;6;0;0
2019-10-19 00:21:31;10,11;1010,59;6;0;0
2019-10-19 00:22:01;10,11;1010,57;6;0;0
2019-10-19 00:22:31;10;1010,55;6;0;0
2019-10-19 00:23:01;10,05;1010,54;7;0;0
2019-10-19 00:23:31;10,09;1010,51;6;0;0
2019-10-19 00:24:01;9,92;1010,53;7;0;0
2019-10-19 00:24:31;9,84;1010,54;8;0;0
2019-10-19 00:25:02;9,82;1010,57;6;0;0
2019-10-19 00:25:31;9,77;1010,61;6;0;0
2019-10-19 00:26:01;9,84;1010,64;7;0;0
2019-10-19 00:26:32;9,96;1010,67;6;0;0
2019-10-19 00:27:01;9,77;1010,66;7;0;0
2019-10-19 00:27:31;9,86;1010,65;6;0;0
2019-10-19 00:28:01;9,74;1010,67;7;0;0
2019-10-19 00:28:31;9,74;1010,67;8;0;0
2019-10-19 00:29:01;9,84;1010,65;7;0;0
2019-10-19 00:29:31;9,79;1010,67;6;0;0
2019-10-19 00:30:01;9,54;1010,71;6;0;0
2019-10-19 00:30:31;9,5;1010,71;6;0;0
2019-10-19 00:31:02;9,52;1010,73;6;0;0
2019-10-19 00:31:31;9,56;1010,72;5;0;0
2019-10-19 00:32:01;9,66;1010,71;6;0;0
2019-10-19 00:32:31;9,46;1010,71;7;0;0
2019-10-19 00:33:01;9,6;1010,72;6;0;0
2019-10-19 00:33:31;9,54;1010,69;6;0;0
2019-10-19 00:34:01;9,45;1010,72;7;0;0
2019-10-19 00:34:31;9,54;1010,74;6;0;0
2019-10-19 00:35:01;9,6;1010,76;6;0;0
2019-10-19 00:35:31;9,49;1010,76;6;0;0
2019-10-19 00:36:01;9,5;1010,77;5;0;0
2019-10-19 00:36:31;9,5;1010,77;6;0;0
2019-10-19 00:37:01;9,48;1010,78;6;0;0
2019-10-19 00:37:31;9,42;1010,77;6;0;0
2019-10-19 00:38:02;9,4;1010,78;7;0;0
2019-10-19 00:38:32;9,35;1010,79;7;0;0
2019-10-19 00:39:01;9,29;1010,79;7;0;0
2019-10-19 00:39:31;9,45;1010,79;6;0;0
2019-10-19 00:40:01;9,33;1010,79;6;0;0
2019-10-19 00:40:31;9,29;1010,76;6;0;0
2019-10-19 00:41:01;9,47;1010,78;6;0;0
2019-10-19 00:41:31;9,33;1010,78;6;0;0
2019-10-19 00:42:01;9,35;1010,79;6;0;0
2019-10-19 00:42:31;9,36;1010,79;6;0;0
2019-10-19 00:43:01;9,38;1010,79;7;0;0
2019-10-19 00:43:31;9,37;1010,79;7;0;0
2019-10-19 00:44:01;9,3;1010,79;7;0;0
2019-10-19 00:44:31;9,5;1010,79;6;0;0
2019-10-19 00:45:01;9,34;1010,8;5;0;0
2019-10-19 00:45:31;9,22;1010,8;5;0;0
2019-10-19 00:46:01;9,3;1010,81;5;0;0
2019-10-19 00:46:31;9,25;1010,83;6;0;0
2019-10-19 00:47:01;9,27;1010,83;6;0;0
2019-10-19 00:47:31;9,37;1010,84;7;0;0
2019-10-19 00:48:01;9,3;1010,83;7;0;0
2019-10-19 00:48:31;9,33;1010,82;6;0;0
2019-10-19 00:49:01;9,39;1010,81;7;0;0
2019-10-19 00:49:32;9,51;1010,8;7;0;0
2019-10-19 00:50:01;9,34;1010,81;7;0;0
2019-10-19 00:50:31;9,35;1010,81;7;0;0
2019-10-19 00:51:01;9,56;1010,8;6;0;0
2019-10-19 00:51:31;9,45;1010,8;6;0;0
2019-10-19 00:52:01;9,51;1010,8;6;0;0
2019-10-19 00:52:31;9,41;1010,81;6;0;0
2019-10-19 00:53:01;9,46;1010,83;7;0;0
2019-10-19 00:53:31;9,31;1010,81;7;0;0
2019-10-19 00:54:01;9,41;1010,82;7;0;0
2019-10-19 00:54:31;9,48;1010,82;7;0;0
2019-10-19 00:55:01;9,54;1010,81;6;0;0
2019-10-19 00:55:31;9,45;1010,81;7;0;0
2019-10-19 00:56:01;9,58;1010,83;7;0;0
2019-10-19 00:56:31;9,59;1010,83;6;0;0
2019-10-19 00:57:01;9,58;1010,83;6;0;0
2019-10-19 00:57:31;9,43;1010,81;7;0;0
2019-10-19 00:58:01;9,42;1010,81;6;0;0
2019-10-19 00:58:31;9,35;1010,86;6;0;0
2019-10-19 00:59:01;9,3;1010,83;6;0;0
2019-10-19 00:59:31;9,49;1010,83;7;0;0
2019-10-19 01:00:01;9,4;1010,83;6;0;0
2019-10-19 01:00:31;9,42;1010,81;5;0;0
2019-10-19 01:01:01;9,45;1010,81;5;0;0
2019-10-19 01:01:32;9,46;1010,8;6;0;0
2019-10-19 01:02:01;9,52;1010,8;6;0;0
2019-10-19 01:02:31;9,42;1010,81;6;0;0
2019-10-19 01:03:01;9,39;1010,79;6;0;0
2019-10-19 01:03:31;9,31;1010,79;6;0;0
2019-10-19 01:04:01;9,39;1010,79;7;0;0
2019-10-19 01:04:31;9,42;1010,79;6;0;0
2019-10-19 01:05:01;9,35;1010,79;6;0;0
2019-10-19 01:05:31;9,19;1010,79;6;0;0
2019-10-19 01:06:01;9,31;1010,79;7;0;0
2019-10-19 01:06:31;9,31;1010,79;6;0;0
2019-10-19 01:07:02;9,43;1010,79;6;0;0
2019-10-19 01:07:31;9,4;1010,79;6;0;0
2019-10-19 01:08:01;9,4;1010,79;6;0;0
2019-10-19 01:08:31;9,46;1010,8;6;0;0
2019-10-19 01:09:01;9,31;1010,8;7;0;0
2019-10-19 01:09:31;9,38;1010,8;6;0;0
2019-10-19 01:10:01;9,35;1010,8;6;0;0
2019-10-19 01:10:31;9,4;1010,8;7;0;0
2019-10-19 01:11:01;9,34;1010,8;7;0;0
2019-10-19 01:11:31;9,27;1010,8;6;0;0
2019-10-19 01:12:01;9,36;1010,8;6;0;0
2019-10-19 01:12:32;9,18;1010,8;6;0;0
2019-10-19 01:13:01;9,1;1010,8;5;0;0
2019-10-19 01:13:31;9,36;1010,81;6;0;0
2019-10-19 01:14:01;9,46;1010,82;6;0;0
2019-10-19 01:14:31;9,42;1010,81;5;0;0
2019-10-19 01:15:01;9,33;1010,81;6;0;0
2019-10-19 01:15:31;9,38;1010,8;6;0;0
2019-10-19 01:16:01;9,45;1010,82;5;0;0
2019-10-19 01:16:31;9,55;1010,82;4;0;0
2019-10-19 01:17:01;9,53;1010,82;6;0;0
2019-10-19 01:17:31;9,32;1010,82;7;0;0
2019-10-19 01:18:01;9,39;1010,83;6;0;0
2019-10-19 01:18:31;9,36;1010,85;6;0;0
2019-10-19 01:19:01;9,29;1010,83;6;0;0
2019-10-19 01:19:31;9,3;1010,86;6;0;0
2019-10-19 01:20:01;9,25;1010,88;6;0;0
2019-10-19 01:20:31;9,22;1010,89;6;0;0
2019-10-19 01:21:01;9,2;1010,87;6;0;0
2019-10-19 01:21:31;9,28;1010,9;6;0;0
2019-10-19 01:22:01;9,29;1010,9;6;0;0
2019-10-19 01:22:31;9,5;1010,92;7;0;0
2019-10-19 01:23:01;9,45;1010,93;5;0;0
2019-10-19 01:23:31;9,4;1010,94;7;0;0
2019-10-19 01:24:01;9,48;1010,97;7;0;0
2019-10-19 01:24:32;9,36;1010,95;6;0;0
2019-10-19 01:25:01;9,25;1011,01;7;0;0
2019-10-19 01:25:31;9,3;1011;7;0;0
2019-10-19 01:26:01;9,24;1010,98;6;0;0
2019-10-19 01:26:31;9,33;1010,97;6;0;0
2019-10-19 01:27:02;9,42;1010,98;6;0;0
2019-10-19 01:27:31;9,34;1010,99;6;0;0
2019-10-19 01:28:01;9,34;1010,97;6;0;0
2019-10-19 01:28:31;9,38;1010,94;6;0;0
2019-10-19 01:29:01;9,43;1010,93;5;0;0
2019-10-19 01:29:31;9,28;1010,91;6;0;0
2019-10-19 01:30:01;9,37;1010,88;6;0;0
2019-10-19 01:30:31;9,47;1010,89;6;0;0
2019-10-19 01:31:01;9,45;1010,86;6;0;0
2019-10-19 01:31:32;9,31;1010,87;6;0;0
2019-10-19 01:32:01;9,5;1010,85;6;0;0
2019-10-19 01:32:31;9,15;1010,84;6;0;0
2019-10-19 01:33:01;9,28;1010,86;5;0;0
2019-10-19 01:33:31;9,19;1010,85;6;0;0
2019-10-19 01:34:02;9,35;1010,84;6;0;0
2019-10-19 01:34:31;9,52;1010,83;6;0;0
2019-10-19 01:35:01;9,27;1010,86;6;0;0
2019-10-19 01:35:31;9,34;1010,86;6;0;0
2019-10-19 01:36:01;9,2;1010,84;7;0;0
2019-10-19 01:36:31;9,19;1010,86;6;0;0
2019-10-19 01:37:01;9,2;1010,88;6;0;0
2019-10-19 01:37:31;9,09;1010,86;6;0;0
2019-10-19 01:38:01;9,16;1010,83;6;0;0
2019-10-19 01:38:31;9,19;1010,89;6;0;0
2019-10-19 01:39:01;9,25;1010,9;6;0;0
2019-10-19 01:39:31;9,27;1010,88;6;0;0
2019-10-19 01:40:01;9,36;1010,89;6;0;0
2019-10-19 01:40:31;9,29;1010,96;6;0;0
2019-10-19 01:41:01;9,38;1011,05;6;0;0
2019-10-19 01:41:31;9,16;1011,09;6;0;0
2019-10-19 01:42:01;9,15;1011,05;6;0;0
2019-10-19 01:42:32;9,29;1011,07;6;0;0
2019-10-19 01:43:01;9,32;1011,11;5;0;0
2019-10-19 01:43:31;9,23;1011,13;6;0;0
2019-10-19 01:44:01;9,23;1011,16;6;0;0
2019-10-19 01:44:31;9,21;1011,17;6;0;0
2019-10-19 01:45:01;9,15;1011,14;6;0;0
2019-10-19 01:45:31;9,19;1011,09;5;0;0
2019-10-19 01:46:01;9,23;1011,07;6;0;0
2019-10-19 01:46:31;9,34;1011,05;6;0;0
2019-10-19 01:47:01;9,27;1011,08;6;0;0
2019-10-19 01:47:31;9,2;1011,04;6;0;0
2019-10-19 01:48:01;9,27;1011;7;0;0
2019-10-19 01:48:31;9,43;1011,03;6;0;0
2019-10-19 01:49:01;9,32;1011,05;5;0;0
2019-10-19 01:49:31;9,22;1011,06;5;0;0
2019-10-19 01:50:01;9,19;1011,1;6;0;0
2019-10-19 01:50:31;9,35;1011,14;5;0;0
2019-10-19 01:51:01;9,25;1011,18;6;0;0
2019-10-19 01:51:31;9,38;1011,16;6;0;0
2019-10-19 01:52:01;9,25;1011,15;5;0;0
2019-10-19 01:52:31;9,15;1011,17;6;0;0
2019-10-19 01:53:01;9,18;1011,14;6;0;0
2019-10-19 01:53:31;9,24;1011,16;6;0;0
2019-10-19 01:54:02;9,21;1011,22;6;0;0
2019-10-19 01:54:32;9,07;1011,21;6;0;0
2019-10-19 01:55:01;9,15;1011,2;6;0;0
2019-10-19 01:55:31;9,11;1011,28;6;0;0
2019-10-19 01:56:01;9,34;1011,24;6;0;0
2019-10-19 01:56:31;9,36;1011,31;6;0;0
2019-10-19 01:57:01;9,38;1011,22;7;0;0
2019-10-19 01:57:31;9,19;1011,22;7;0;0
2019-10-19 01:58:01;9,28;1011,22;7;0;0
2019-10-19 01:58:31;9,23;1011,23;7;0;0
2019-10-19 01:59:01;9,26;1011,31;7;0;0
2019-10-19 01:59:31;9,44;1011,29;5;0;0
2019-10-19 02:00:01;9,33;1011,28;5;0;0
2019-10-19 02:00:31;9,27;1011,29;6;0;0
2019-10-19 02:01:01;9,33;1011,28;6;0;0
2019-10-19 02:01:31;9,34;1011,28;6;0;0
2019-10-19 02:02:01;9,42;1011,3;6;0;0
2019-10-19 02:02:31;9,42;1011,38;6;0;0
2019-10-19 02:03:01;9,38;1011,39;6;0;0
2019-10-19 02:03:32;9,51;1011,33;7;0;0
2019-10-19 02:04:01;9,5;1011,28;6;0;0
2019-10-19 02:04:31;9,45;1011,28;6;0;0
2019-10-19 02:05:01;9,54;1011,25;7;0;0
2019-10-19 02:05:31;9,51;1011,25;6;0;0
2019-10-19 02:06:01;9,47;1011,29;5;0;0
2019-10-19 02:06:31;9,45;1011,29;5;0;0
2019-10-19 02:07:01;9,39;1011,34;6;0;0
2019-10-19 02:07:31;9,5;1011,31;6;0;0
2019-10-19 02:08:01;9,55;1011,35;6;0;0
2019-10-19 02:08:31;9,41;1011,34;6;0;0
2019-10-19 02:09:01;9,27;1011,39;6;0;0
2019-10-19 02:09:31;9,33;1011,4;6;0;0
2019-10-19 02:10:01;9,18;1011,39;5;0;0
2019-10-19 02:10:31;9,25;1011,44;5;0;0
2019-10-19 02:11:01;9,39;1011,41;6;0;0
2019-10-19 02:11:31;9,35;1011,43;6;0;0
2019-10-19 02:12:01;9,3;1011,36;6;0;0
2019-10-19 02:12:32;9,31;1011,37;6;0;0
2019-10-19 02:13:01;9,26;1011,39;6;0;0
2019-10-19 02:13:31;9,3;1011,44;6;0;0
2019-10-19 02:14:01;9,41;1011,41;5;0;0
2019-10-19 02:14:31;9,25;1011,48;6;0;0
2019-10-19 02:15:02;9,3;1011,47;6;0;0
2019-10-19 02:15:31;9,3;1011,52;6;0;0
2019-10-19 02:16:01;9,19;1011,53;6;0;0
2019-10-19 02:16:31;9,33;1011,55;6;0;0
2019-10-19 02:17:01;9,49;1011,58;6;0;0
2019-10-19 02:17:31;9,37;1011,59;5;0;0
2019-10-19 02:18:01;9,34;1011,56;6;0;0
2019-10-19 02:18:31;9,43;1011,5;6;0;0
2019-10-19 02:19:01;9,27;1011,57;7;0;0
2019-10-19 02:19:31;9,33;1011,53;6;0;0
2019-10-19 02:20:01;9,43;1011,55;5;0;0
2019-10-19 02:20:31;9,33;1011,53;6;0;0
2019-10-19 02:21:01;9,51;1011,56;6;0;0
2019-10-19 02:21:31;9,39;1011,51;5;0;0
2019-10-19 02:22:01;9,28;1011,51;5;0;0
2019-10-19 02:22:31;9,4;1011,52;5;0;0
2019-10-19 02:23:01;9,38;1011,51;6;0;0
2019-10-19 02:23:32;9,5;1011,45;6;0;0
2019-10-19 02:24:02;9,51;1011,47;5;0;0
2019-10-19 02:24:31;9,47;1011,46;6;0;0
2019-10-19 02:25:01;9,42;1011,4;6;0;0
2019-10-19 02:25:31;9,46;1011,41;6;0;0
2019-10-19 02:26:01;9,47;1011,43;6;0;0
2019-10-19 02:26:31;9,43;1011,4;6;0;0
2019-10-19 02:27:01;9,3;1011,4;6;0;0
2019-10-19 02:27:31;9,34;1011,37;5;0;0
2019-10-19 02:28:01;9,31;1011,37;6;0;0
2019-10-19 02:28:31;9,28;1011,39;6;0;0
2019-10-19 02:29:01;9,39;1011,33;6;0;0
2019-10-19 02:29:31;9,24;1011,33;5;0;0
2019-10-19 02:30:01;9,44;1011,36;6;0;0
2019-10-19 02:30:31;9,54;1011,38;6;0;0
2019-10-19 02:31:01;9,19;1011,39;7;0;0
2019-10-19 02:31:31;9,35;1011,32;6;0;0
2019-10-19 02:32:01;9,27;1011,31;6;0;0
2019-10-19 02:32:31;9,4;1011,39;6;0;0
2019-10-19 02:33:01;9,49;1011,35;6;0;0
2019-10-19 02:33:31;9,53;1011,29;6;0;0
2019-10-19 02:34:01;9,5;1011,3;6;0;0
2019-10-19 02:34:32;9,43;1011,24;6;0;0
2019-10-19 02:35:01;9,39;1011,26;6;0;0
2019-10-19 02:35:31;9,48;1011,33;5;0;0
2019-10-19 02:36:01;9,41;1011,34;5;0;0
2019-10-19 02:36:31;9,39;1011,35;6;0;0
2019-10-19 02:37:01;9,32;1011,3;6;0;0
2019-10-19 02:37:31;9,36;1011,25;6;0;0
2019-10-19 02:38:01;9,45;1011,28;5;0;0
2019-10-19 02:38:32;9,5;1011,29;5;0;0
2019-10-19 02:39:01;9,47;1011,26;6;0;0
2019-10-19 02:39:31;9,47;1011,29;6;0;0
2019-10-19 02:40:01;9,36;1011,29;6;0;0
2019-10-19 02:40:31;9,41;1011,25;6;0;0
2019-10-19 02:41:02;9,25;1011,25;6;0;0
2019-10-19 02:41:31;9,29;1011,26;6;0;0
2019-10-19 02:42:01;9,38;1011,27;6;0;0
2019-10-19 02:42:31;9,39;1011,24;5;0;0
2019-10-19 02:43:01;9,32;1011,27;6;0;0
2019-10-19 02:43:31;9,38;1011,28;6;0;0
2019-10-19 02:44:01;9,45;1011,33;6;0;0
2019-10-19 02:44:31;9,4;1011,35;6;0;0
2019-10-19 02:45:01;9,34;1011,42;6;0;0
2019-10-19 02:45:31;9,32;1011,39;6;0;0
2019-10-19 02:46:01;9,24;1011,32;6;0;0
2019-10-19 02:46:31;9,29;1011,33;5;0;0
2019-10-19 02:47:01;9,36;1011,32;5;0;0
2019-10-19 02:47:31;9,33;1011,35;5;0;0
2019-10-19 02:48:01;9,22;1011,35;6;0;0
2019-10-19 02:48:31;9,34;1011,31;6;0;0
2019-10-19 02:49:01;9,19;1011,28;6;0;0
2019-10-19 02:49:32;9,3;1011,31;6;0;0
2019-10-19 02:50:01;9,29;1011,3;6;0;0
2019-10-19 02:50:31;9,33;1011,32;6;0;0
2019-10-19 02:51:01;9,38;1011,33;5;0;0
2019-10-19 02:51:31;9,24;1011,38;5;0;0
2019-10-19 02:52:01;9,21;1011,38;6;0;0
2019-10-19 02:52:31;9,34;1011,38;6;0;0
2019-10-19 02:53:01;9,37;1011,36;6;0;0
2019-10-19 02:53:31;9,42;1011,4;6;0;0
2019-10-19 02:54:01;9,33;1011,43;6;0;0
2019-10-19 02:54:31;9,39;1011,45;6;0;0
2019-10-19 02:55:01;9,39;1011,4;6;0;0
2019-10-19 02:55:31;9,57;1011,36;6;0;0
2019-10-19 02:56:01;9,41;1011,43;5;0;0
2019-10-19 02:56:31;9,4;1011,45;6;0;0
2019-10-19 02:57:01;9,43;1011,45;6;0;0
2019-10-19 02:57:31;9,43;1011,38;6;0;0
2019-10-19 02:58:01;9,54;1011,42;6;0;0
2019-10-19 02:58:32;9,42;1011,41;6;0;0
2019-10-19 02:59:01;9,42;1011,38;6;0;0
2019-10-19 02:59:31;9,37;1011,35;6;0;0
2019-10-19 03:00:01;9,42;1011,36;6;0;0
2019-10-19 03:00:31;9,57;1011,34;6;0;0
2019-10-19 03:01:01;9,57;1011,32;6;0;0
2019-10-19 03:01:31;9,62;1011,3;5;0;0
2019-10-19 03:02:01;9,54;1011,25;5;0;0
2019-10-19 03:02:31;9,32;1011,28;5;0;0
2019-10-19 03:03:01;9,36;1011,24;5;0;0
2019-10-19 03:03:31;9,52;1011,19;6;0;0
2019-10-19 03:04:01;9,55;1011,24;6;0;0
2019-10-19 03:04:33;9,63;1011,3;5;0;0
2019-10-19 03:05:01;9,55;1011,4;5;0;0
2019-10-19 03:05:31;9,57;1011,44;5;0;0
2019-10-19 03:06:01;9,73;1011,47;5;0;0
2019-10-19 03:06:31;9,55;1011,47;6;0;0
2019-10-19 03:07:01;9,61;1011,44;6;0;0
2019-10-19 03:07:31;9,69;1011,43;6;0;0
2019-10-19 03:08:01;9,59;1011,44;5;0;0
2019-10-19 03:08:31;9,76;1011,4;5;0;0
2019-10-19 03:09:01;9,58;1011,33;6;0;0
2019-10-19 03:09:31;9,5;1011,4;6;0;0
2019-10-19 03:10:01;9,5;1011,37;5;0;0
2019-10-19 03:10:31;9,55;1011,41;6;0;0
2019-10-19 03:11:01;9,7;1011,45;6;0;0
2019-10-19 03:11:31;9,58;1011,48;5;0;0
2019-10-19 03:12:01;9,46;1011,44;5;0;0
2019-10-19 03:12:31;9,54;1011,43;4;0;0
2019-10-19 03:13:01;9,45;1011,37;5;0;0
2019-10-19 03:13:31;9,54;1011,34;6;0;0
2019-10-19 03:14:01;9,62;1011,25;6;0;0
2019-10-19 03:14:31;9,67;1011,29;5;0;0
2019-10-19 03:15:01;9,57;1011,16;5;0;0
2019-10-19 03:15:31;9,51;1011,2;6;0;0
2019-10-19 03:16:01;9,66;1011,13;6;0;0
2019-10-19 03:16:32;9,43;1011,14;6;0;0
2019-10-19 03:17:01;9,5;1011,18;6;0;0
2019-10-19 03:17:31;9,46;1011,23;6;0;0
2019-10-19 03:18:01;9,57;1011,3;6;0;0
2019-10-19 03:18:31;9,61;1011,28;6;0;0
2019-10-19 03:19:01;9,64;1011,26;5;0;0
2019-10-19 03:19:31;9,68;1011,33;5;0;0
2019-10-19 03:20:01;9,62;1011,36;6;0;0
2019-10-19 03:20:31;9,82;1011,38;6;0;0
2019-10-19 03:21:01;9,78;1011,38;6;0;0
2019-10-19 03:21:31;9,84;1011,42;5;0;0
2019-10-19 03:22:01;9,71;1011,32;6;0;0
2019-10-19 03:22:31;9,57;1011,28;6;0;0
2019-10-19 03:23:01;9,51;1011,22;6;0;0
2019-10-19 03:23:31;9,67;1011,25;6;0;0
2019-10-19 03:24:01;9,49;1011,29;5;0;0
2019-10-19 03:24:31;9,63;1011,32;5;0;0
2019-10-19 03:25:01;9,6;1011,34;6;0;0
2019-10-19 03:25:31;9,58;1011,29;6;0;0
2019-10-19 03:26:01;9,61;1011,34;6;0;0
2019-10-19 03:26:31;9,65;1011,35;6;0;0
2019-10-19 03:27:01;9,74;1011,38;6;0;0
2019-10-19 03:27:32;9,57;1011,4;6;0;0
2019-10-19 03:28:01;9,32;1011,42;6;0;0
2019-10-19 03:28:31;9,39;1011,47;6;0;0
2019-10-19 03:29:02;9,44;1011,45;6;0;0
2019-10-19 03:29:31;9,7;1011,44;6;0;0
2019-10-19 03:30:01;9,57;1011,42;6;0;0
2019-10-19 03:30:31;9,64;1011,42;6;0;0
2019-10-19 03:31:01;9,52;1011,44;5;0;0
2019-10-19 03:31:31;9,56;1011,43;5;0;0
2019-10-19 03:32:01;9,49;1011,45;6;0;0
2019-10-19 03:32:31;9,52;1011,4;7;0;0
2019-10-19 03:33:01;9,6;1011,31;6;0;0
2019-10-19 03:33:31;9,6;1011,28;6;0;0
2019-10-19 03:34:01;9,61;1011,32;5;0;0
2019-10-19 03:34:31;9,56;1011,35;5;0;0
2019-10-19 03:35:02;9,49;1011,34;6;0;0
2019-10-19 03:35:31;9,67;1011,25;5;0;0
2019-10-19 03:36:01;9,54;1011,27;5;0;0
2019-10-19 03:36:31;9,59;1011,28;5;0;0
2019-10-19 03:37:01;9,78;1011,31;5;0;0
2019-10-19 03:37:31;9,69;1011,36;6;0;0
2019-10-19 03:38:01;9,81;1011,32;5;0;0
2019-10-19 03:38:31;9,69;1011,38;5;0;0
2019-10-19 03:39:01;9,66;1011,46;5;0;0
2019-10-19 03:39:32;9,65;1011,47;5;0;0
2019-10-19 03:40:01;9,57;1011,53;6;0;0
2019-10-19 03:40:31;9,64;1011,49;5;0;0
2019-10-19 03:41:01;9,64;1011,46;6;0;0
2019-10-19 03:41:31;9,75;1011,49;6;0;0
2019-10-19 03:42:01;9,57;1011,56;5;0;0
2019-10-19 03:42:31;9,81;1011,55;5;0;0
2019-10-19 03:43:01;9,61;1011,56;6;0;0
2019-10-19 03:43:31;9,72;1011,56;6;0;0
2019-10-19 03:44:01;9,74;1011,54;5;0;0
2019-10-19 03:44:31;9,71;1011,51;6;0;0
2019-10-19 03:45:02;9,77;1011,54;5;0;0
2019-10-19 03:45:31;9,89;1011,54;5;0;0
2019-10-19 03:46:01;9,8;1011,53;6;0;0
2019-10-19 03:46:31;9,88;1011,5;7;0;0
2019-10-19 03:47:01;9,93;1011,5;6;0;0
2019-10-19 03:47:31;9,69;1011,55;6;0;0
2019-10-19 03:48:02;9,74;1011,52;5;0;0
2019-10-19 03:48:31;9,72;1011,46;5;0;0
2019-10-19 03:49:01;9,59;1011,53;6;0;0
2019-10-19 03:49:31;9,55;1011,6;5;0;0
2019-10-19 03:50:01;9,55;1011,55;6;0;0
2019-10-19 03:50:32;9,76;1011,56;6;0;0
2019-10-19 03:51:01;9,69;1011,58;6;0;0
2019-10-19 03:51:31;9,66;1011,52;6;0;0
2019-10-19 03:52:01;9,57;1011,49;6;0;0
2019-10-19 03:52:31;9,5;1011,5;6;0;0
2019-10-19 03:53:01;9,61;1011,43;6;0;0
2019-10-19 03:53:31;9,72;1011,37;5;0;0
2019-10-19 03:54:01;9,66;1011,37;5;0;0
2019-10-19 03:54:31;9,55;1011,43;6;0;0
2019-10-19 03:55:01;9,54;1011,42;6;0;0
2019-10-19 03:55:31;9,6;1011,41;5;0;0
2019-10-19 03:56:01;9,68;1011,46;5;0;0
2019-10-19 03:56:31;9,55;1011,46;6;0;0
2019-10-19 03:57:01;9,63;1011,48;6;0;0
2019-10-19 03:57:31;9,72;1011,46;6;0;0
2019-10-19 03:58:01;9,66;1011,47;6;0;0
2019-10-19 03:58:31;9,71;1011,47;5;0;0
2019-10-19 03:59:01;9,64;1011,41;6;0;0
2019-10-19 03:59:31;9,65;1011,4;6;0;0
2019-10-19 04:00:02;9,76;1011,44;6;0;0
2019-10-19 04:00:31;9,68;1011,47;6;0;0
2019-10-19 04:01:01;9,49;1011,43;6;0;0
2019-10-19 04:01:31;9,34;1011,46;5;0;0
2019-10-19 04:02:01;9,41;1011,42;5;0;0
2019-10-19 04:02:31;9,52;1011,41;6;0;0
2019-10-19 04:03:01;9,47;1011,34;6;0;0
2019-10-19 04:03:31;9,44;1011,36;6;0;0
2019-10-19 04:04:01;9,55;1011,38;6;0;0
2019-10-19 04:04:31;9,61;1011,45;5;0;0
2019-10-19 04:05:01;9,66;1011,48;6;0;0
2019-10-19 04:05:31;9,59;1011,52;6;0;0
2019-10-19 04:06:01;9,51;1011,47;5;0;0
2019-10-19 04:06:31;9,51;1011,5;5;0;0
2019-10-19 04:07:01;9,54;1011,43;5;0;0
2019-10-19 04:07:31;9,36;1011,44;6;0;0
2019-10-19 04:08:01;9,23;1011,42;6;0;0
2019-10-19 04:08:31;9,3;1011,48;5;0;0
2019-10-19 04:09:01;9,21;1011,42;6;0;0
2019-10-19 04:09:31;9,32;1011,46;6;0;0
2019-10-19 04:10:01;9,5;1011,42;5;0;0
2019-10-19 04:10:31;9,43;1011,41;5;0;0
2019-10-19 04:11:01;9,46;1011,42;5;0;0
2019-10-19 04:11:31;9,6;1011,47;6;0;0
2019-10-19 04:12:01;9,62;1011,49;6;0;0
2019-10-19 04:12:31;9,68;1011,53;6;0;0
2019-10-19 04:13:01;9,42;1011,51;6;0;0
2019-10-19 04:13:32;9,4;1011,55;5;0;0
2019-10-19 04:14:02;9,32;1011,56;6;0;0
2019-10-19 04:14:31;9,35;1011,52;5;0;0
2019-10-19 04:15:01;9,42;1011,52;5;0;0
2019-10-19 04:15:31;9,44;1011,49;6;0;0
2019-10-19 04:16:01;9,44;1011,52;6;0;0
2019-10-19 04:16:31;9,37;1011,5;6;0;0
2019-10-19 04:17:01;9,39;1011,47;6;0;0
2019-10-19 04:17:31;9,44;1011,51;6;0;0
2019-10-19 04:18:01;9,5;1011,52;6;0;0
2019-10-19 04:18:31;9,39;1011,51;5;0;0
2019-10-19 04:19:02;9,32;1011,44;6;0;0
2019-10-19 04:19:31;9,43;1011,5;5;0;0
2019-10-19 04:20:01;9,53;1011,56;5;0;0
2019-10-19 04:20:31;9,45;1011,55;5;0;0
2019-10-19 04:21:01;9,45;1011,51;5;0;0
2019-10-19 04:21:31;9,47;1011,51;6;0;0
2019-10-19 04:22:01;9,45;1011,54;6;0;0
2019-10-19 04:22:31;9,42;1011,56;6;0;0
2019-10-19 04:23:01;9,34;1011,58;6;0;0
2019-10-19 04:23:31;9,3;1011,59;6;0;0
2019-10-19 04:24:01;9,34;1011,57;6;0;0
2019-10-19 04:24:31;9,36;1011,59;6;0;0
2019-10-19 04:25:01;9,32;1011,62;5;0;0
2019-10-19 04:25:32;9,47;1011,58;6;0;0
2019-10-19 04:26:01;9,5;1011,61;5;0;0
2019-10-19 04:26:31;9,36;1011,57;5;0;0
2019-10-19 04:27:01;9,57;1011,59;6;0;0
2019-10-19 04:27:31;9,48;1011,59;6;0;0
2019-10-19 04:28:01;9,53;1011,61;6;0;0
2019-10-19 04:28:31;9,5;1011,59;6;0;0
2019-10-19 04:29:01;9,47;1011,64;5;0;0
2019-10-19 04:29:31;9,35;1011,6;6;0;0
2019-10-19 04:30:01;9,29;1011,55;5;0;0
2019-10-19 04:30:31;9,28;1011,53;6;0;0
2019-10-19 04:31:01;9,29;1011,55;5;0;0
2019-10-19 04:31:31;9,39;1011,58;5;0;0
2019-10-19 04:32:01;9,37;1011,53;5;0;0
2019-10-19 04:32:31;9,38;1011,49;6;0;0
2019-10-19 04:33:01;9,31;1011,51;6;0;0
2019-10-19 04:33:31;9,38;1011,5;6;0;0
2019-10-19 04:34:01;9,38;1011,5;5;0;0
2019-10-19 04:34:31;9,46;1011,54;6;0;0
2019-10-19 04:35:01;9,41;1011,52;5;0;0
2019-10-19 04:35:31;9,38;1011,48;6;0;0
2019-10-19 04:36:01;9,41;1011,47;6;0;0
2019-10-19 04:36:32;9,27;1011,48;6;0;0
2019-10-19 04:37:01;9,35;1011,5;6;0;0
2019-10-19 04:37:31;9,54;1011,48;6;0;0
2019-10-19 04:38:01;9,6;1011,54;6;0;0
2019-10-19 04:38:31;9,67;1011,52;5;0;0
2019-10-19 04:39:02;9,67;1011,48;6;0;0
2019-10-19 04:39:31;9,61;1011,49;6;0;0
2019-10-19 04:40:01;9,54;1011,51;5;0;0
2019-10-19 04:40:31;9,67;1011,49;6;0;0
2019-10-19 04:41:01;9,65;1011,47;6;0;0
2019-10-19 04:41:31;9,55;1011,45;5;0;0
2019-10-19 04:42:01;9,61;1011,47;5;0;0
2019-10-19 04:42:31;9,58;1011,47;5;0;0
2019-10-19 04:43:01;9,58;1011,47;5;0;0
2019-10-19 04:43:31;9,65;1011,45;5;0;0
2019-10-19 04:44:01;9,56;1011,48;6;0;0
2019-10-19 04:44:31;9,47;1011,48;6;0;0
2019-10-19 04:45:01;9,49;1011,44;6;0;0
2019-10-19 04:45:31;9,61;1011,43;5;0;0
2019-10-19 04:46:01;9,75;1011,41;6;0;0
2019-10-19 04:46:31;9,64;1011,4;6;0;0
2019-10-19 04:47:01;9,69;1011,37;5;0;0
2019-10-19 04:47:31;9,63;1011,36;5;0;0
2019-10-19 04:48:01;9,72;1011,38;5;0;0
2019-10-19 04:48:32;9,6;1011,38;5;0;0
2019-10-19 04:49:01;9,68;1011,37;5;0;0
2019-10-19 04:49:31;9,47;1011,4;5;0;0
2019-10-19 04:50:01;9,48;1011,38;5;0;0
2019-10-19 04:50:31;9,59;1011,35;6;0;0
2019-10-19 04:51:01;9,68;1011,35;5;0;0
2019-10-19 04:51:31;9,74;1011,36;5;0;0
2019-10-19 04:52:01;9,71;1011,31;6;0;0
2019-10-19 04:52:31;9,59;1011,37;6;0;0
2019-10-19 04:53:01;9,7;1011,36;6;0;0
2019-10-19 04:53:31;9,64;1011,39;5;0;0
2019-10-19 04:54:01;9,61;1011,4;6;0;0
2019-10-19 04:54:31;9,58;1011,38;5;0;0
2019-10-19 04:55:01;9,57;1011,39;5;0;0
2019-10-19 04:55:31;9,53;1011,42;5;0;0
2019-10-19 04:56:01;9,54;1011,4;5;0;0
2019-10-19 04:56:31;9,69;1011,39;5;0;0
2019-10-19 04:57:02;9,73;1011,41;5;0;0
2019-10-19 04:57:31;9,8;1011,4;5;0;0
2019-10-19 04:58:01;9,62;1011,38;5;0;0
2019-10-19 04:58:31;9,68;1011,4;6;0;0
2019-10-19 04:59:01;9,58;1011,38;6;0;0
2019-10-19 04:59:31;9,69;1011,43;5;0;0
2019-10-19 05:00:01;9,59;1011,46;5;0;0
2019-10-19 05:00:32;9,77;1011,5;5;0;0
2019-10-19 05:01:01;9,72;1011,51;5;0;0
2019-10-19 05:01:31;9,81;1011,52;5;0;0
2019-10-19 05:02:01;9,55;1011,53;6;0;0
2019-10-19 05:02:31;9,62;1011,51;6;0;0
2019-10-19 05:03:01;9,58;1011,56;5;0;0
2019-10-19 05:03:31;9,63;1011,51;5;0;0
2019-10-19 05:04:01;9,61;1011,55;5;0;0
2019-10-19 05:04:31;9,75;1011,51;7;0;0
2019-10-19 05:05:02;9,77;1011,5;6;0;0
2019-10-19 05:05:31;9,71;1011,49;6;0;0
2019-10-19 05:06:01;9,64;1011,54;6;0;0
2019-10-19 05:06:31;9,71;1011,54;5;0;0
2019-10-19 05:07:01;9,63;1011,47;5;0;0